Temp
25 23 23 22 22 23 24 25 25 25 26 25 24 23 23 23 24 27 28 29 30 28 27 28 28 28 28 28 29 29 28 23 22 22 22 22 22 21 21 21 21 20 21 21 21 21 22 23 24 23 23 23 23 23 22 22 21 21 20 20 20 20 20 20 20 21 21 21 21 20 20 20 19 18 18 18 18 18 18 18 18 18 18 18 18 18
24 22 22 23 24 25 25 25 26 26 25 25 24 23 23 23 24 28 28 28 30 28 26 28 28 28 28 27 27 28 28 24 22 22 22 22 22 22 22 21 21 21 21 22 21 22 22 23 23 23 23 22 22 22 22 22 21 21 20 20 20 20 21 21 21 21 21 21 21 20 20 19 19 18 18 18 18 18 18 18 18 18 18 18 18 18
23 22 23 25 25 26 26 26 26 25 25 25 24 23 22 23 25 27 28 28 29 27 26 27 26 26 26 27 27 27 28 27 24 23 23 23 23 22 22 22 21 21 22 22 21 21 22 22 23 23 23 22 22 22 22 22 21 21 20 20 20 21 21 21 21 20 21 21 21 20 20 19 19 18 18 18 18 17 17 17 17 17 18 18 18 18
22 23 25 25 26 26 26 26 26 25 25 24 24 23 22 24 24 23 26 27 28 27 26 27 26 25 26 27 28 28 29 29 26 25 24 23 23 22 22 22 22 22 22 22 22 21 22 22 22 22 22 22 22 22 22 22 21 21 20 20 20 21 21 21 21 21 21 21 20 20 19 19 19 18 18 17 17 17 17 17 17 17 17 18 18 18
23 25 26 26 26 26 25 25 25 24 24 24 24 23 23 24 24 23 26 27 26 26 27 26 24 24 26 26 27 27 29 29 27 28 27 26 25 23 23 23 22 23 22 22 22 22 22 21 22 22 22 22 22 22 22 22 21 21 20 20 21 21 21 21 21 21 21 20 20 19 19 18 18 18 18 17 17 17 17 17 17 17 17 18 18 18
24 26 27 26 26 26 25 25 25 24 23 23 24 25 25 25 25 25 26 26 24 23 26 26 21 21 25 26 26 27 29 28 27 28 29 29 27 24 23 23 23 23 23 22 22 22 22 21 21 21 22 22 21 22 22 22 21 21 20 20 21 21 21 21 21 21 20 20 19 19 19 18 18 18 18 17 17 17 17 17 17 17 17 17 17 17
25 26 27 26 25 25 25 24 25 25 22 22 24 26 26 26 25 25 25 24 21 21 25 25 22 21 23 24 26 27 28 28 27 28 28 28 28 25 23 23 23 23 23 22 22 22 22 21 20 20 21 21 21 22 22 22 21 21 20 20 21 21 21 21 21 20 20 20 20 20 19 19 18 18 18 17 17 17 17 16 17 17 17 17 17 17
26 26 25 26 25 25 24 24 25 26 23 22 25 27 26 26 25 25 25 23 22 23 24 25 23 21 21 23 26 27 26 27 27 27 28 28 28 27 24 23 23 23 23 23 23 23 22 21 20 20 21 21 21 22 22 22 21 21 20 20 21 21 21 21 20 20 20 20 20 20 20 19 18 18 18 17 17 17 17 16 17 17 16 17 16 16
26 25 25 26 25 24 24 24 26 26 24 24 26 27 26 26 26 26 25 23 23 23 21 23 23 21 20 23 26 26 25 25 26 27 28 28 28 28 25 23 23 23 23 23 23 23 22 21 21 21 21 21 22 22 22 22 22 21 21 20 21 21 21 20 20 20 20 20 20 20 19 19 18 18 18 17 17 17 17 16 16 16 16 16 16 16
26 26 26 26 24 24 25 26 26 25 25 25 27 27 26 26 25 25 24 23 23 22 20 21 22 21 20 22 24 25 24 25 26 26 28 27 26 27 25 23 23 23 23 23 23 23 22 21 21 21 21 21 21 21 21 21 22 21 21 20 20 21 21 20 20 20 20 20 20 19 19 19 18 18 18 17 17 17 17 17 16 16 16 16 16 16
27 27 27 26 25 25 25 26 26 26 26 26 26 26 25 25 25 25 24 23 21 20 21 22 22 21 20 21 23 24 25 25 26 26 27 26 26 26 25 24 24 24 23 23 23 23 22 22 22 21 21 20 21 20 20 20 21 21 20 20 20 20 20 20 19 20 20 20 20 19 19 19 18 18 18 17 17 17 17 17 16 16 16 16 16 16
26 26 26 26 26 26 26 25 26 26 26 26 26 24 23 22 23 22 22 22 21 20 21 22 22 21 20 21 24 25 26 26 26 26 26 25 25 25 25 25 25 23 22 22 22 22 22 22 22 21 20 20 20 19 19 18 19 18 18 19 19 19 19 19 19 19 20 20 20 19 19 19 19 18 18 18 17 17 17 17 16 16 16 16 16 16
25 25 26 26 27 27 25 24 25 26 26 26 25 23 21 20 21 20 20 21 20 20 21 22 21 21 20 22 25 26 27 27 26 27 26 24 24 24 24 25 24 22 22 22 22 22 22 22 21 20 21 20 19 19 18 17 16 17 17 19 19 18 18 19 19 19 20 20 19 19 19 19 19 18 18 18 17 17 17 17 16 16 16 16 16 16
22 24 26 25 25 26 25 24 23 24 25 24 23 22 21 20 20 20 20 20 20 20 21 22 21 20 21 22 24 25 26 27 26 25 25 24 25 25 25 24 23 22 21 21 21 21 22 21 20 20 21 20 20 19 17 16 16 17 17 18 18 17 17 18 19 19 19 20 19 19 19 19 19 19 18 18 18 17 17 17 17 17 16 16 16 16
21 22 24 25 24 25 26 25 24 24 24 24 25 24 21 21 20 20 20 20 20 20 21 21 21 20 20 22 23 24 25 25 24 24 24 24 25 25 24 22 21 21 21 21 21 21 21 21 20 20 19 19 20 19 17 16 16 16 16 16 16 16 16 17 18 19 19 19 19 19 20 19 19 19 18 18 18 18 17 17 17 17 17 17 16 16
21 21 24 26 25 25 25 26 26 25 24 24 26 24 21 22 21 20 20 20 20 20 20 21 21 21 22 23 24 25 25 25 24 24 25 25 24 23 22 21 21 21 20 20 21 21 21 20 20 20 18 17 18 17 16 15 15 14 15 15 16 16 16 17 18 18 19 19 19 19 19 20 19 19 19 18 18 18 18 18 18 17 17 17 17 16
21 21 24 26 26 26 26 26 27 25 23 24 24 22 23 25 23 21 20 21 20 20 20 20 21 22 22 23 25 26 25 25 24 24 25 25 23 21 21 21 20 20 20 20 20 20 20 19 19 20 19 18 17 17 16 15 14 16 16 15 16 16 16 17 18 18 19 19 18 19 19 20 19 19 19 19 18 18 18 18 18 18 17 17 17 17
21 21 23 25 25 26 27 27 27 26 25 23 22 23 25 25 24 22 20 20 20 19 20 21 20 21 21 21 23 25 25 25 24 24 24 23 22 21 20 20 20 20 20 20 20 20 19 17 18 19 19 19 17 17 17 15 15 17 16 15 15 16 16 17 17 18 18 18 18 19 19 20 19 19 19 19 19 19 18 18 18 18 17 17 17 17
22 21 22 25 24 25 27 26 25 26 26 25 24 25 24 22 21 21 20 20 20 19 20 20 20 21 20 21 22 23 24 24 24 24 24 22 21 20 20 20 20 20 20 20 19 19 18 17 17 18 19 19 18 16 16 15 15 15 14 14 15 16 17 18 18 18 18 18 18 19 20 20 20 19 19 19 19 19 19 19 19 18 18 17 17 17
23 21 21 24 24 24 25 24 22 23 25 25 25 25 24 22 21 21 21 20 20 20 20 20 20 20 21 21 22 23 24 24 24 23 23 22 21 20 20 20 20 20 20 19 19 19 18 17 17 18 18 17 18 17 16 15 15 15 14 15 16 17 18 18 18 18 18 18 19 19 20 20 20 20 20 19 19 19 19 19 19 19 18 18 17 17
23 21 20 22 23 23 22 23 23 23 24 24 23 22 23 22 21 21 21 21 20 20 20 20 19 19 21 21 21 23 24 24 23 23 22 21 20 20 20 20 20 19 19 19 18 19 18 17 17 18 17 17 18 18 17 16 16 15 15 16 17 18 18 17 17 18 18 19 19 19 20 20 20 20 20 19 19 19 19 19 19 19 18 18 18 17
21 21 20 20 21 21 21 23 24 24 24 23 22 22 22 22 20 20 20 20 20 20 20 19 18 19 21 21 22 23 23 23 23 22 21 21 20 20 19 19 20 19 19 19 18 18 18 17 17 17 17 17 17 17 17 17 17 16 16 16 17 18 17 17 18 18 18 19 19 19 19 20 20 20 20 19 19 19 19 19 19 18 18 18 17 17
21 21 20 20 20 21 22 23 24 24 24 24 24 23 23 22 20 20 19 19 20 20 20 19 18 20 21 21 22 22 21 22 22 21 21 21 20 19 19 19 19 19 19 19 19 18 17 16 17 17 17 16 16 16 16 16 16 16 16 16 17 17 17 17 18 17 18 18 19 19 19 20 20 19 19 19 19 19 18 18 18 18 18 17 17 17
21 21 20 19 20 21 22 23 24 24 24 23 23 23 23 22 21 21 20 20 20 20 20 19 18 20 21 21 21 21 21 21 21 20 20 20 20 19 19 19 19 19 19 18 19 18 16 16 17 17 17 16 16 16 16 16 16 16 16 16 16 16 16 16 17 16 16 16 17 18 19 19 19 19 18 18 18 18 18 18 18 18 18 18 17 16
20 20 19 19 18 19 20 21 21 22 22 21 21 22 23 23 22 21 21 20 20 20 20 20 19 19 21 21 22 22 21 20 20 20 20 19 19 19 19 19 19 19 19 18 18 18 17 17 17 16 17 17 16 16 16 16 16 16 16 16 16 16 16 16 16 15 15 15 15 16 18 18 18 18 18 18 18 18 18 18 18 18 18 18 17 17
20 19 19 18 17 17 18 19 19 20 20 20 21 21 22 22 21 21 20 19 19 19 20 20 19 19 21 21 22 22 21 20 20 20 20 19 19 19 19 19 19 19 19 19 18 18 18 17 16 16 17 17 16 16 16 16 16 16 16 17 17 17 17 17 16 16 15 14 14 15 16 17 17 17 18 18 18 17 17 17 17 17 18 18 18 17
19 19 19 18 17 17 18 18 20 20 19 20 20 21 21 21 21 20 20 19 19 19 19 20 19 19 20 20 21 21 21 21 20 20 20 20 19 18 17 17 18 19 19 19 19 18 18 18 16 16 16 17 16 16 16 16 16 16 16 16 16 17 16 16 16 16 15 15 15 15 14 14 14 15 16 16 17 17 17 17 17 17 17 17 17 17
18 18 18 18 18 18 19 19 20 20 20 20 20 20 20 20 20 20 19 19 19 19 19 19 20 19 19 19 20 21 21 21 20 19 19 19 19 18 16 15 17 19 19 19 19 18 18 19 17 16 16 17 17 16 17 16 16 16 16 16 16 16 16 16 16 16 16 16 15 15 14 13 13 14 15 16 16 16 17 17 17 17 17 17 17 17
18 17 18 18 18 19 19 19 20 20 20 20 20 20 20 20 20 19 19 19 19 19 18 19 20 19 18 18 19 19 20 20 19 18 18 18 18 17 16 17 18 19 18 18 19 18 18 19 18 16 16 17 17 16 16 16 16 16 16 16 16 16 16 16 16 16 16 16 16 16 15 15 15 15 16 16 16 16 16 16 16 16 16 16 16 16
18 17 18 18 18 18 18 18 19 19 19 19 19 19 20 19 19 18 18 18 19 18 18 18 18 18 17 17 17 18 18 18 17 17 17 17 18 17 17 18 19 18 18 17 18 18 18 18 18 16 16 17 17 17 16 16 16 16 16 16 16 16 16 16 16 16 16 16 16 16 16 16 16 16 16 16 16 16 16 16 16 16 16 16 16 16
18 17 18 18 16 16 17 18 18 18 19 18 19 19 19 19 18 18 18 18 18 17 17 17 17 16 16 17 17 17 17 17 17 16 16 16 16 17 17 17 17 17 18 17 17 18 18 18 17 15 16 17 17 17 17 16 16 16 16 16 16 16 16 16 16 16 16 16 16 16 16 16 16 16 16 16 16 16 16 16 16 16 16 16 16 16
17 17 17 17 15 15 17 17 17 17 17 17 17 17 18 18 17 17 17 17 17 17 16 16 16 15 16 16 16 16 17 17 16 16 16 16 15 15 15 15 15 15 16 17 17 17 17 18 17 15 16 17 17 17 17 16 16 16 16 16 16 16 16 16 16 16 16 16 16 16 16 16 16 16 16 15 15 15 15 15 15 15 15 16 16 16
17 17 17 16 15 15 16 17 16 16 15 15 15 15 16 17 17 17 17 16 16 16 15 15 15 15 15 14 15 15 16 17 16 16 16 15 15 15 15 14 14 14 14 16 17 17 17 17 16 15 16 17 17 17 17 16 16 16 16 16 16 16 16 16 16 16 16 16 16 16 16 16 16 16 16 16 16 15 15 15 15 15 15 16 16 16
17 17 16 16 15 14 16 16 16 14 13 14 14 13 14 15 16 16 15 14 14 15 14 14 14 14 14 13 13 14 15 16 16 15 15 15 15 15 14 14 13 13 13 14 15 15 15 14 14 15 16 16 16 16 16 16 16 16 16 16 16 16 16 16 16 16 15 15 15 16 16 16 16 16 16 16 16 16 16 16 16 16 16 16 16 16
17 17 16 16 15 14 15 15 13 13 13 14 13 13 14 13 14 15 14 12 13 14 14 14 13 13 13 13 13 13 14 14 14 14 14 14 14 14 14 13 13 13 13 13 13 13 12 13 14 15 15 16 16 16 16 16 16 16 16 16 16 16 16 15 15 15 15 15 15 16 16 16 16 16 15 15 15 15 15 15 15 16 16 16 16 16
17 16 16 16 15 14 14 13 12 13 15 14 12 13 13 13 13 14 13 11 11 12 13 13 13 13 12 12 12 13 13 14 13 13 13 13 14 14 14 13 13 13 13 13 12 12 11 12 13 14 15 15 16 16 16 16 16 16 16 16 16 16 16 16 15 15 15 16 16 16 16 15 15 15 15 15 15 15 15 15 15 15 15 15 15 15
17 16 16 15 15 14 13 13 13 14 14 13 12 13 13 13 13 13 12 10 10 11 12 12 12 12 12 12 12 12 13 14 13 12 13 13 13 13 13 13 13 13 13 12 12 12 12 12 12 12 13 15 15 15 15 15 15 15 16 16 16 16 16 16 16 16 16 16 16 16 16 16 15 15 15 15 15 15 15 15 15 15 15 15 15 15
17 16 16 15 14 14 13 12 12 12 12 11 11 12 13 13 13 13 13 11 10 11 11 11 11 11 11 12 12 12 12 12 12 11 12 13 13 13 13 12 13 13 13 13 13 13 13 13 12 12 13 14 14 14 14 15 15 15 15 15 15 15 15 16 16 16 16 16 16 16 16 16 16 15 15 15 15 15 15 15 15 15 15 15 15 15
16 16 15 14 13 13 13 12 11 11 10 10 11 12 13 13 13 13 12 10 9 10 11 11 11 11 11 12 12 12 11 10 10 11 12 12 12 12 12 12 12 13 14 14 14 14 14 14 14 13 14 14 14 14 14 15 15 15 15 15 15 15 15 15 15 15 15 16 16 16 16 16 16 15 15 15 15 15 15 15 14 14 14 15 15 15
14 14 14 13 13 13 12 12 11 10 10 10 11 12 12 13 13 12 11 9 9 11 11 11 11 11 12 12 12 12 11 10 10 11 12 12 12 12 12 12 12 12 13 14 14 14 14 14 14 14 14 14 14 15 15 15 15 15 15 15 15 15 15 15 15 15 15 15 15 15 15 15 15 15 15 15 15 15 14 14 14 14 14 14 14 14
11 12 12 12 12 12 12 12 11 9 9 10 10 11 13 13 12 10 9 9 10 11 11 12 12 12 12 12 11 11 11 11 11 11 11 12 11 11 11 12 12 12 13 13 13 13 14 14 14 14 14 14 14 15 15 14 14 14 15 15 15 15 15 15 15 15 15 15 15 15 15 15 15 15 15 15 15 14 14 14 14 14 14 14 14 14
11 11 11 11 12 12 11 11 11 9 9 9 10 12 13 12 9 9 10 11 11 11 12 12 12 12 11 11 11 11 11 11 11 11 11 11 11 11 11 11 11 12 12 12 13 13 13 13 13 13 14 14 14 14 14 14 14 14 14 14 14 14 14 14 14 14 14 14 14 14 14 15 15 15 15 15 15 14 14 14 14 14 14 14 14 13
11 10 11 11 11 11 11 10 10 9 9 10 11 11 11 10 9 10 11 11 11 11 10 10 10 10 10 10 10 10 11 11 11 11 11 11 11 11 10 10 11 11 12 12 12 13 13 13 13 13 13 13 13 14 14 14 14 14 14 14 14 14 14 14 14 14 14 14 14 14 14 14 14 14 14 14 14 14 14 14 14 14 13 13 13 13
10 10 10 10 10 10 10 9 9 9 10 11 11 10 11 11 10 10 9 9 9 9 9 9 9 9 9 9 9 10 10 10 11 11 11 11 11 11 10 10 11 11 11 12 12 12 13 12 12 13 13 13 13 13 13 13 13 14 14 14 14 14 14 14 14 14 14 14 14 14 14 14 14 14 14 14 14 14 14 14 14 13 13 13 13 12
10 10 10 10 10 10 10 10 10 10 11 11 11 11 11 10 9 9 9 8 9 9 9 9 9 9 9 9 9 9 9 9 10 10 10 10 10 10 10 10 10 11 11 11 12 12 12 12 13 13 13 13 13 13 13 13 13 13 13 14 14 14 14 14 14 14 13 13 13 13 13 13 13 13 13 13 13 14 14 14 13 13 13 12 12 11
10 11 11 10 10 11 11 11 10 9 10 11 11 11 10 9 9 9 9 8 8 9 9 9 9 9 9 9 9 9 9 9 9 9 9 9 9 9 9 9 10 10 10 11 11 11 12 12 12 12 12 13 13 13 13 13 13 13 13 13 13 14 14 13 13 13 13 13 13 13 13 13 13 13 13 13 13 13 13 13 13 12 12 12 11 11
10 10 11 10 10 10 10 9 8 8 9 10 9 9 9 9 9 9 9 9 9 9 9 9 9 9 8 8 8 8 8 8 8 8 8 8 8 8 8 8 9 9 10 10 10 10 10 10 11 11 11 12 12 12 12 12 12 12 12 12 12 13 13 13 12 12 13 13 13 13 13 13 13 13 13 13 13 13 12 12 12 12 11 11 10 10
10 10 10 10 9 10 9 8 7 8 9 9 8 8 8 8 8 9 9 8 8 8 8 8 8 8 8 7 7 8 8 8 8 8 8 8 8 8 8 8 8 9 9 9 9 9 9 9 10 10 10 10 10 10 10 11 11 11 11 11 11 11 11 11 11 11 12 12 12 12 12 13 13 12 12 12 12 12 11 11 11 11 11 10 10 10
10 10 9 9 9 9 9 8 7 8 8 8 8 8 8 8 8 8 8 8 8 7 7 7 7 7 7 7 7 7 7 7 7 7 7 7 7 7 7 8 8 8 9 9 9 9 9 9 9 9 9 9 9 10 10 10 10 10 10 10 10 10 10 11 11 11 11 11 12 12 12 12 12 12 12 11 11 10 10 10 10 10 10 10 10 9
9 8 8 8 8 7 7 7 7 7 7 7 8 8 8 8 8 8 8 7 7 7 7 7 6 6 6 6 6 6 6 6 6 6 6 6 6 7 7 7 7 8 8 8 8 8 8 8 8 8 8 8 9 9 9 9 9 9 10 10 10 10 10 10 10 10 11 11 11 11 12 12 12 12 11 11 10 9 9 9 9 9 9 9 9 9
8 7 7 7 6 6 7 7 8 7 7 7 8 8 8 8 7 7 7 7 7 6 6 6 6 6 6 6 6 6 5 5 5 5 5 5 6 6 6 6 6 6 6 6 7 7 7 7 8 8 8 8 8 8 8 9 9 9 9 9 9 10 10 10 10 10 10 11 11 11 11 12 12 11 11 10 9 9 9 8 7 8 8 8 8 8
Height
744 755 760 760 758 753 748 746 745 744 743 745 747 749 749 747 736 721 719 716 714 728 735 732 734 734 733 730 726 723 726 735 741 744 749 750 752 754 755 755 755 756 757 758 762 763 764 766 768 771 773 775 777 779 782 785 788 790 791 794 795 797 799 799 801 803 804 806 807 807 807 807 807 808 808 809 809 810 811 812 813 813 814 815 815 816
745 759 759 751 748 744 742 741 740 741 742 744 747 750 749 747 739 723 721 720 713 726 736 731 733 733 732 732 729 725 728 735 738 741 746 748 752 754 753 755 755 756 757 759 761 763 764 766 767 770 772 774 776 777 781 784 787 789 791 793 795 796 798 799 801 803 804 806 807 807 807 807 808 808 808 809 809 810 811 812 813 813 814 814 814 815
754 758 749 741 739 738 738 737 738 741 742 745 747 751 753 746 740 730 726 723 717 726 736 734 737 738 733 730 729 727 726 728 732 734 738 742 748 753 753 754 756 757 759 759 761 762 764 765 766 769 771 773 775 777 780 783 786 788 791 793 794 796 797 800 802 803 805 806 807 807 807 807 808 808 808 809 810 810 810 811 812 813 813 814 814 815
760 751 738 734 735 735 738 736 738 742 744 747 747 753 755 745 746 747 736 729 725 728 734 736 739 739 734 730 727 726 722 722 727 730 732 736 741 747 749 750 753 756 758 759 761 761 763 765 766 767 769 771 774 776 779 782 785 788 790 792 793 795 797 800 802 803 804 806 807 808 808 808 808 809 810 809 810 810 810 811 812 813 813 814 814 815
750 738 729 731 733 734 740 739 740 746 750 749 746 749 751 743 746 749 739 733 732 733 732 737 749 745 737 736 734 728 723 723 726 726 727 728 733 740 744 747 749 751 754 758 760 761 761 763 764 765 768 770 772 775 777 780 784 786 789 791 793 795 797 800 802 803 804 805 807 808 809 810 810 810 810 810 810 811 811 811 812 813 813 813 814 814
741 730 726 732 734 734 739 741 740 746 753 752 745 742 742 740 741 743 739 738 747 751 738 740 766 763 740 738 739 730 725 726 726 724 724 725 728 737 743 746 747 748 750 753 757 759 760 762 764 766 767 769 771 773 776 780 783 786 788 791 793 795 798 801 802 803 804 805 806 807 808 809 810 811 811 810 809 810 811 811 812 812 813 813 813 814
734 727 726 732 735 736 741 743 739 741 753 757 744 735 735 736 739 742 742 747 758 761 742 739 766 772 752 742 739 732 728 729 728 725 725 726 728 734 741 743 745 747 750 753 755 757 759 761 763 765 766 768 770 772 776 779 782 784 787 790 792 795 799 801 802 803 804 805 806 806 807 808 809 810 810 810 810 810 810 811 811 812 813 813 813 814
729 729 730 731 734 739 744 746 739 736 751 755 738 731 735 736 738 740 741 748 752 749 744 740 752 768 766 749 736 733 735 734 732 729 727 727 727 731 738 742 743 745 747 750 753 754 755 757 759 761 763 765 768 771 775 777 780 782 785 788 790 793 798 801 803 804 804 805 805 806 807 809 809 809 810 811 811 811 811 811 812 812 813 813 814 815
726 731 731 730 736 742 742 740 735 735 746 744 731 730 734 734 737 737 740 747 744 748 760 752 747 767 771 749 735 734 738 740 736 731 728 727 728 729 734 740 741 742 743 745 748 750 752 754 757 759 761 764 767 770 772 774 777 780 783 786 787 789 796 801 803 804 804 805 805 806 807 808 810 810 811 811 811 812 811 811 812 812 813 814 814 815
724 725 724 728 737 740 737 732 730 734 739 734 728 730 731 733 737 738 744 748 748 760 771 758 750 769 774 752 741 741 741 742 737 731 727 728 731 732 735 740 742 742 744 746 748 750 751 753 755 757 760 763 766 768 771 773 775 778 780 784 785 785 792 800 803 804 805 805 805 806 806 807 808 810 811 812 812 813 812 812 812 812 813 814 815 816
720 717 718 724 730 730 729 729 727 729 730 727 729 733 736 738 739 741 745 747 759 773 770 756 749 764 777 760 745 744 740 737 736 733 731 730 732 734 738 742 744 746 747 748 750 752 753 755 757 759 761 763 766 768 771 772 774 777 779 782 785 785 789 797 802 803 805 805 805 805 805 805 806 808 810 812 812 813 812 812 812 813 814 815 816 817
721 723 723 720 720 722 726 729 727 724 724 727 733 739 749 753 750 754 755 754 773 782 766 754 750 761 777 765 743 738 733 730 733 732 733 735 734 735 739 741 744 747 749 751 754 755 755 757 758 761 762 763 766 768 770 773 775 778 780 781 784 785 786 793 800 803 805 806 805 805 804 804 805 806 808 810 812 812 812 812 813 813 814 815 817 818
729 728 724 721 718 719 728 735 733 728 725 730 736 744 760 770 770 775 775 771 780 777 759 755 762 768 771 755 740 736 730 728 729 728 731 734 735 736 738 740 743 747 750 753 755 756 756 758 759 760 762 763 765 766 769 773 775 776 777 778 780 784 785 790 797 802 805 806 807 806 804 803 804 805 807 809 810 811 812 812 813 814 815 816 817 818
743 732 723 725 724 719 727 738 743 739 733 736 739 748 765 777 786 792 786 780 781 774 758 755 765 772 765 751 742 738 731 728 727 728 732 733 733 736 737 740 744 747 749 752 753 755 755 756 757 759 760 761 762 764 768 771 771 772 774 777 781 786 788 791 796 802 805 807 808 807 805 803 803 804 805 807 809 810 811 812 813 814 815 816 817 819
756 751 732 728 728 724 724 729 736 736 735 737 733 740 755 764 778 788 785 784 784 777 766 761 767 773 768 756 744 736 732 731 731 731 732 733 733 736 738 742 746 748 750 752 753 755 755 755 757 758 759 759 759 761 764 767 770 772 776 780 785 789 793 794 797 800 804 807 810 809 806 803 803 803 804 806 808 809 810 811 813 814 815 817 818 819
753 753 729 720 721 721 724 722 720 729 739 737 727 737 751 750 757 770 773 773 775 778 774 767 766 761 756 750 737 731 732 732 734 734 733 736 737 739 744 747 749 751 752 754 755 757 757 757 758 758 759 759 758 761 764 768 773 777 779 782 785 789 793 796 797 797 800 807 810 810 807 804 802 803 803 805 807 808 809 810 811 813 815 816 818 820
752 748 726 719 720 716 720 720 716 727 741 738 735 743 742 733 741 761 771 765 769 785 780 766 764 756 752 751 737 732 735 733 736 737 735 739 741 745 750 750 752 754 755 757 758 760 760 760 760 760 760 761 761 763 766 770 776 779 780 781 783 787 790 795 798 796 797 804 808 808 807 804 802 803 803 804 806 807 808 809 810 812 814 815 817 819
748 750 732 724 728 718 711 717 717 719 728 738 744 741 732 732 739 753 771 775 778 790 779 765 767 763 761 762 746 737 739 738 738 738 737 742 745 749 753 753 754 756 757 760 761 762 763 762 761 761 761 763 763 765 767 769 773 776 778 780 782 786 788 791 797 798 797 801 804 805 805 804 802 802 803 804 805 806 807 808 809 810 812 814 816 818
740 753 741 724 729 722 711 721 728 721 720 729 735 730 735 752 757 756 769 780 785 791 782 767 765 763 763 763 753 746 744 740 740 739 739 743 746 750 753 753 755 757 759 762 764 765 764 763 763 763 763 764 765 767 768 769 771 773 776 779 781 784 785 788 794 796 796 798 801 802 802 802 802 802 803 804 805 806 806 808 808 809 811 813 815 817
736 754 754 731 725 727 723 730 740 735 726 725 729 730 734 748 759 759 761 768 776 785 784 774 769 769 764 758 753 749 743 740 741 742 743 745 747 750 751 753 755 758 761 764 766 766 765 765 765 765 766 766 767 768 769 770 772 773 776 779 780 781 783 785 789 791 792 794 797 798 799 801 801 802 803 803 804 805 806 807 808 809 810 812 815 817
737 752 759 742 731 737 740 737 738 738 735 735 741 745 742 744 752 757 757 760 767 778 783 783 785 780 762 753 753 748 741 740 742 744 746 748 749 750 751 753 756 760 763 765 766 767 766 766 766 766 768 768 768 769 770 772 773 774 776 778 778 779 781 783 786 788 789 791 793 795 797 799 800 801 802 803 804 804 805 807 808 809 810 812 814 816
744 752 758 755 748 750 747 735 729 731 733 737 743 745 745 748 755 765 770 767 766 773 777 783 792 780 756 749 750 745 743 742 743 747 750 751 752 752 753 754 757 760 763 765 766 767 767 767 768 768 769 769 770 770 771 772 773 775 777 778 778 779 780 783 785 787 787 788 790 792 795 796 798 800 800 801 803 804 805 806 807 808 809 811 813 815
744 750 758 760 755 750 742 730 727 729 728 731 736 736 739 747 757 771 779 774 769 770 770 777 787 774 753 749 748 747 748 746 745 749 752 755 756 755 755 756 758 761 763 765 766 767 768 768 768 769 770 771 772 772 773 774 774 775 777 778 779 780 782 784 785 787 788 787 787 789 792 793 795 797 799 800 802 803 804 805 805 806 807 809 811 813
744 750 760 762 755 748 740 731 728 728 729 737 740 735 736 744 750 758 763 764 766 767 766 778 787 773 755 751 749 749 750 749 749 750 751 756 758 757 758 759 760 762 764 766 767 767 768 769 769 770 771 773 774 774 775 775 776 777 778 779 780 780 782 783 785 787 789 789 788 787 789 790 792 794 796 798 800 801 803 804 805 806 807 808 810 812
751 755 761 768 771 765 757 751 746 741 743 749 749 742 740 741 746 751 754 759 768 766 763 775 785 774 759 752 749 749 751 755 757 756 757 760 760 761 762 761 761 762 764 766 768 768 769 769 770 771 772 774 775 776 776 777 777 778 779 780 780 781 782 783 785 787 788 790 792 790 788 788 790 792 794 796 797 799 801 803 805 806 807 807 809 810
753 758 761 771 782 781 775 771 766 759 755 754 751 748 745 745 748 754 759 768 776 771 765 771 779 774 761 754 752 751 754 760 762 760 761 764 765 767 765 762 761 762 764 766 767 769 769 770 771 772 773 775 776 776 777 777 778 779 780 781 782 782 782 783 785 787 787 790 793 793 790 788 788 789 791 792 794 796 798 801 804 806 807 807 808 809
754 759 760 766 774 775 773 768 760 758 760 759 756 752 751 750 751 756 765 773 774 772 771 770 771 772 767 761 760 757 756 760 763 762 762 763 765 770 772 770 764 762 765 766 767 769 769 770 771 772 774 776 776 777 778 778 779 780 781 782 783 783 783 783 784 785 787 789 789 790 791 790 790 791 792 793 793 794 796 798 801 804 806 808 808 809
758 764 761 762 765 764 764 760 755 756 759 759 757 755 754 753 754 759 767 769 766 772 777 768 762 769 770 765 764 762 758 759 761 764 765 764 764 767 774 777 771 765 766 766 767 769 769 770 772 772 774 776 777 778 779 779 780 781 782 783 783 784 784 784 784 784 785 786 786 787 790 793 794 795 796 795 795 795 796 797 799 801 804 806 808 809
760 766 761 761 763 760 759 759 757 757 758 756 757 758 756 755 758 763 766 764 764 771 774 766 762 768 771 769 766 763 761 761 764 766 767 767 766 767 770 772 769 767 769 769 769 769 770 771 772 773 775 776 778 779 780 781 782 782 783 784 785 785 786 786 786 786 786 786 787 788 790 792 793 794 794 794 794 796 797 798 800 801 803 804 806 807
757 765 762 761 766 764 762 762 761 760 759 757 757 757 756 758 761 764 766 765 764 767 769 767 768 773 776 773 769 766 764 764 765 768 769 770 771 770 769 768 766 767 770 771 770 769 770 771 772 774 776 777 779 780 781 783 784 784 785 785 786 787 787 788 788 788 788 789 789 789 790 791 791 792 793 794 795 797 797 799 800 801 802 803 804 805
757 764 762 762 770 772 766 764 764 762 762 762 760 758 759 761 762 763 765 767 767 770 771 770 775 780 777 771 769 768 766 765 766 770 772 774 775 774 774 773 770 768 767 769 770 770 771 772 773 775 776 778 780 781 782 784 785 786 787 787 788 788 788 789 789 790 791 791 791 792 792 792 793 794 795 796 796 797 797 798 799 800 801 802 803 804
759 764 763 766 778 779 770 768 768 766 767 768 767 766 764 764 766 767 768 770 770 772 774 775 780 783 778 771 771 770 768 769 771 773 774 776 776 777 778 779 778 774 770 768 770 771 772 773 774 775 776 778 780 781 783 784 785 787 789 789 789 789 789 790 790 791 792 792 793 793 794 794 795 795 796 797 797 798 798 799 799 799 800 800 801 802
759 764 766 770 780 780 772 770 772 773 778 779 777 776 771 766 768 769 770 774 774 774 779 783 784 782 779 777 777 775 773 772 773 774 776 777 777 777 779 780 781 779 775 771 771 771 773 774 775 776 777 778 780 782 783 784 785 787 789 790 791 791 791 791 791 792 793 793 794 794 794 795 795 796 797 797 797 798 798 799 799 799 800 800 800 801
758 763 766 769 777 781 774 771 775 784 791 788 782 780 777 773 772 773 777 782 781 779 782 785 784 783 782 783 784 783 780 777 776 778 779 779 779 779 780 781 782 781 779 778 778 777 777 776 777 778 779 780 781 783 784 784 786 787 788 790 790 791 791 792 792 792 792 793 794 794 795 795 795 796 796 797 798 798 798 799 799 800 800 800 800 800
759 763 766 767 774 779 776 777 789 795 790 784 782 780 779 779 778 776 782 789 787 784 785 786 786 787 786 786 786 785 783 781 781 782 782 782 782 781 782 783 783 783 783 783 784 784 781 780 780 780 780 781 782 783 784 785 786 787 788 789 789 790 791 792 792 792 792 793 793 794 795 795 795 796 796 797 798 798 798 799 799 799 800 800 800 800
758 762 765 767 772 778 780 786 795 790 778 778 784 782 779 782 781 778 787 797 796 791 790 790 790 790 788 788 788 785 783 782 783 785 785 785 784 784 785 787 786 786 786 786 786 786 784 783 783 783 782 782 782 783 784 785 786 787 788 788 789 790 790 791 791 792 791 792 792 793 793 794 795 796 796 797 797 797 797 798 798 798 799 799 799 799
754 760 764 767 771 777 781 786 787 781 779 785 789 786 784 787 787 785 792 802 802 796 794 794 793 793 792 791 790 787 783 782 785 789 788 787 786 787 788 789 788 788 788 787 788 788 788 786 786 786 786 785 785 785 785 786 786 787 787 788 789 789 790 790 790 791 791 791 792 792 792 793 794 795 795 796 796 796 796 796 797 797 797 798 798 798
750 756 761 767 772 774 779 787 790 789 794 798 796 792 789 788 788 785 790 801 804 799 797 797 796 795 795 793 791 790 787 787 792 795 792 789 789 788 789 789 789 788 788 789 789 789 789 788 788 789 789 789 789 788 787 787 786 786 787 788 788 789 790 790 790 791 791 791 791 791 791 792 792 793 794 794 795 795 795 795 796 796 796 797 797 797
751 755 759 766 773 775 781 791 794 795 802 805 800 793 789 788 786 784 791 803 807 802 798 798 797 796 795 794 794 793 794 799 802 799 795 792 791 790 790 790 789 789 789 789 789 789 788 788 789 790 790 790 790 789 788 787 786 787 787 788 788 789 789 789 790 790 791 791 790 790 791 791 791 792 792 793 793 794 794 795 795 795 795 796 796 796
763 765 765 771 776 777 782 789 793 798 805 805 799 794 790 787 785 789 801 810 807 802 799 798 798 797 796 795 796 796 799 804 803 799 795 794 793 792 792 791 790 790 789 789 789 789 788 788 788 788 788 789 789 788 787 787 786 786 787 788 788 789 788 789 789 789 790 790 790 790 790 790 790 791 791 792 792 792 793 794 794 795 795 795 795 795
776 775 775 778 779 779 782 787 794 804 808 803 799 796 790 786 792 804 813 812 805 802 800 798 798 798 796 796 797 798 799 800 799 797 796 794 793 793 793 793 791 790 789 789 789 788 788 788 787 787 787 787 787 786 786 786 786 786 786 786 787 788 788 788 788 788 789 789 789 789 789 789 790 790 790 790 791 791 792 792 793 793 794 794 794 793
784 784 783 784 783 783 786 787 794 806 810 804 800 796 789 795 810 815 810 804 802 801 799 798 798 798 798 799 799 799 799 798 797 796 796 795 795 793 792 792 792 791 790 788 788 787 787 787 787 786 786 786 786 785 785 785 785 785 785 785 786 786 787 787 787 787 788 788 788 788 788 788 789 789 789 789 789 789 790 790 791 791 792 792 792 792
787 789 789 789 789 788 790 794 802 811 808 801 800 799 797 804 811 808 802 802 803 802 802 803 802 802 802 802 801 800 799 798 797 796 796 796 795 794 792 792 791 791 790 788 787 786 785 785 785 785 784 784 784 784 784 784 783 783 783 783 783 784 785 785 786 786 786 786 787 787 787 788 788 788 788 788 788 788 788 788 789 789 790 790 791 790
789 792 793 795 795 795 799 804 807 808 802 797 800 803 802 804 805 804 805 807 806 806 807 806 805 804 804 803 802 801 800 798 797 796 796 795 794 793 792 791 790 789 789 788 787 786 784 784 782 782 782 781 781 782 782 781 781 781 780 780 781 782 782 782 783 783 783 784 785 785 786 786 786 786 786 786 786 786 786 786 787 787 788 788 789 788
795 793 793 795 795 797 801 802 801 800 799 798 799 801 802 804 806 806 808 809 809 808 808 806 806 804 803 802 802 801 800 799 798 797 796 795 794 793 792 790 789 788 787 786 786 785 784 782 781 779 779 778 778 779 778 779 779 778 778 778 779 779 779 780 780 780 781 781 782 783 784 784 784 784 784 784 784 784 784 784 784 784 785 786 787 787
796 792 791 794 795 795 795 797 799 802 802 800 800 801 804 806 807 806 807 808 809 808 806 806 805 803 802 802 801 800 800 799 798 797 796 794 793 792 791 790 788 787 786 785 784 783 782 781 780 778 777 776 776 776 776 776 776 775 775 775 776 776 777 777 777 777 778 778 779 780 781 782 782 782 782 782 782 781 781 781 781 782 783 784 785 786
795 793 793 795 797 799 800 803 806 806 803 802 803 804 805 805 806 807 808 808 807 806 806 805 804 803 802 802 801 800 800 798 797 796 795 793 792 791 789 788 787 785 785 784 782 782 781 780 779 777 776 775 774 774 774 774 773 773 773 773 773 774 774 774 774 775 775 775 776 777 778 778 779 779 779 780 780 779 779 779 780 781 782 783 784 785
796 795 795 797 799 800 804 807 808 805 802 803 806 807 806 807 807 806 806 806 806 805 805 804 803 803 802 801 801 800 798 797 796 794 792 791 790 789 788 786 785 783 782 781 780 779 779 778 777 776 775 774 773 773 772 772 771 771 771 771 771 772 771 771 772 772 773 774 774 774 775 775 776 776 776 777 777 777 777 777 779 780 781 782 783 784
796 799 800 802 802 802 804 808 808 806 805 805 807 808 808 807 807 806 806 806 806 805 805 804 803 803 802 801 800 798 797 795 794 792 791 789 788 787 786 784 783 781 779 778 777 776 775 775 774 773 772 772 771 770 770 769 768 768 768 768 769 769 769 769 770 770 771 772 772 772 773 774 774 774 774 774 775 775 776 776 777 779 780 781 782 783
800 805 806 807 810 812 813 813 813 813 813 811 809 809 808 808 808 807 807 806 806 806 806 805 803 802 801 800 799 798 797 795 793 792 791 788 787 785 784 782 781 779 777 776 775 774 773 772 771 770 769 768 768 768 767 766 765 765 765 765 766 766 766 766 767 767 768 769 769 770 771 771 772 772 771 772 773 774 775 775 776 777 778 780 781 782
805 808 809 813 818 817 814 812 812 814 816 813 810 809 809 809 809 809 808 808 807 806 805 805 803 802 800 799 798 798 797 795 793 792 789 787 786 784 782 781 780 778 776 775 774 772 771 770 769 767 766 765 765 764 764 763 762 762 762 762 763 763 763 763 763 764 764 765 766 767 767 768 768 768 768 769 771 772 773 774 775 777 778 779 780 782
Wind_Speed
4 3 4 6 7 9 9 7 6 3 2 4 5 5 7 7 7 3 7 10 7 5 5 7 6 7 6 7 8 6 9 15 16 13 10 9 9 9 9 10 11 11 10 13 17 20 20 22 23 21 24 30 30 28 25 23 23 23 22 22 21 21 21 20 20 20 19 19 18 18 21 24 26 27 25 22 20 19 17 15 13 12 11 10 9 8
4 5 7 9 10 10 7 4 3 2 4 4 5 5 8 7 6 6 6 5 4 6 1 1 1 6 5 4 6 5 9 13 17 16 14 14 11 9 11 11 11 8 9 12 14 18 21 23 24 24 26 29 29 30 28 26 25 23 22 22 21 20 21 21 20 20 19 20 20 19 21 25 25 24 22 19 19 19 18 16 13 12 10 10 10 8
4 6 9 11 10 6 3 2 4 5 5 4 4 4 6 6 4 6 5 4 5 5 1 6 6 6 6 6 7 2 7 9 14 17 16 16 13 11 11 11 11 10 10 11 12 15 20 23 25 25 27 29 30 30 29 27 25 24 23 22 20 20 21 19 17 17 18 19 19 20 23 25 23 20 18 18 18 18 17 16 14 12 10 10 11 10
4 7 11 11 8 4 2 3 6 6 4 2 2 2 5 7 4 5 3 4 4 3 3 6 6 6 6 7 9 4 4 6 10 14 14 15 15 14 13 12 14 13 12 12 12 13 17 20 23 24 26 29 30 29 29 28 26 25 24 23 21 21 20 18 16 17 18 18 20 23 25 24 22 21 20 20 19 17 17 15 14 14 12 12 13 12
7 7 6 6 6 5 4 2 4 3 3 4 5 3 5 8 4 2 3 2 4 5 4 6 6 6 5 5 7 6 0 5 7 10 11 11 11 14 14 12 15 15 14 14 14 13 13 16 20 23 26 28 29 29 28 29 28 26 26 24 22 22 20 18 18 19 20 23 26 28 27 24 24 24 22 21 20 18 18 17 15 14 14 16 15 13
9 6 5 6 3 2 4 2 3 4 1 4 5 6 7 9 7 3 3 4 5 5 2 4 3 5 6 5 7 7 4 1 5 7 8 7 8 13 15 13 14 15 13 14 15 14 12 14 18 21 25 27 28 30 29 29 29 28 28 25 22 22 19 19 20 20 21 25 28 28 28 26 25 23 21 22 22 20 18 17 16 15 14 15 16 14
5 4 5 6 4 4 4 1 1 5 2 3 4 5 5 7 8 6 2 3 3 2 3 5 5 4 6 5 7 7 6 4 4 6 7 6 7 11 14 13 13 11 10 11 13 12 11 14 17 19 25 27 28 31 31 28 27 28 29 26 23 22 19 19 20 20 20 23 24 23 24 25 24 22 21 22 22 20 19 19 17 16 15 13 14 14
2 3 3 5 5 2 1 3 4 4 3 3 4 2 5 7 7 6 3 1 3 2 2 2 6 2 4 6 7 6 6 6 5 5 7 7 7 10 12 12 12 12 12 12 14 14 13 16 19 21 27 30 31 32 31 29 27 28 28 27 26 23 19 19 19 20 20 21 20 21 22 23 23 22 23 23 21 20 20 20 18 17 15 13 12 11
2 4 4 5 4 2 3 4 6 5 4 6 6 4 3 5 5 5 3 3 2 2 2 4 4 3 4 6 7 7 6 5 6 7 7 6 5 7 11 14 13 12 13 12 13 13 12 16 22 25 28 31 33 34 33 32 30 29 28 28 28 25 20 19 20 20 20 20 20 22 24 24 23 24 24 22 20 20 21 21 19 17 15 14 13 12
3 4 6 5 4 3 4 6 7 6 6 7 5 2 1 4 6 6 3 2 1 3 3 6 0 2 4 5 5 5 5 3 4 6 6 7 7 7 9 12 10 8 8 9 9 9 11 17 22 26 28 28 32 33 33 33 32 30 29 28 27 26 23 20 21 22 20 21 23 24 25 26 27 26 24 21 20 21 21 21 19 17 16 16 15 14
4 2 3 3 4 4 3 4 7 8 7 5 3 1 2 2 4 5 3 2 4 2 4 6 3 2 3 5 4 2 3 4 5 4 6 7 10 11 10 10 8 6 6 6 5 5 8 10 13 19 22 25 29 29 28 30 31 29 27 25 24 24 25 23 23 24 23 24 26 25 27 29 28 27 24 23 22 22 22 20 19 18 18 17 15 14
4 1 1 2 5 3 2 4 5 7 5 1 3 3 3 3 3 3 4 4 3 3 5 3 3 2 3 4 5 4 3 1 4 5 6 8 9 10 10 9 8 9 8 7 6 5 5 4 6 13 18 21 24 25 25 25 25 23 23 25 24 22 24 26 26 25 25 26 25 24 28 29 27 27 26 25 25 24 21 20 20 19 18 17 14 13
5 4 3 2 4 4 2 2 5 6 5 2 2 5 4 2 3 2 3 2 1 5 4 2 5 2 5 5 5 4 2 2 4 5 8 10 10 10 10 9 9 10 10 8 6 5 6 5 5 8 14 18 21 24 23 21 22 24 26 31 31 26 23 25 28 27 26 26 23 24 29 27 27 28 27 27 25 22 21 21 22 20 18 17 15 13
4 6 4 2 1 4 4 2 1 3 4 2 2 4 3 1 0 1 2 1 2 4 4 3 5 1 4 3 6 7 4 2 6 8 9 10 10 10 9 9 10 10 9 8 7 5 5 4 5 3 3 13 23 26 22 22 27 30 31 33 31 24 19 20 25 24 23 25 21 22 29 26 27 29 26 27 25 22 23 23 21 19 17 17 15 13
2 5 5 3 1 6 6 4 6 4 3 4 4 5 4 4 4 3 2 2 3 3 5 1 4 2 3 3 8 8 1 7 8 9 8 8 8 9 9 10 10 10 8 7 6 6 6 5 6 9 11 4 17 25 25 26 27 23 22 24 21 13 8 12 21 20 18 21 19 18 27 28 28 29 26 26 25 23 25 23 20 18 16 15 14 12
2 4 6 5 5 8 5 3 5 2 2 4 2 4 4 4 5 3 2 4 3 0 3 2 1 3 2 4 9 4 6 10 9 9 9 7 8 10 10 9 9 8 8 7 7 7 6 7 6 11 16 15 10 16 21 20 16 17 17 19 19 14 8 10 20 21 18 20 20 18 25 29 28 29 26 25 25 23 24 23 19 18 17 15 14 13
2 5 6 2 7 9 5 2 2 3 1 3 2 2 4 5 7 4 1 1 2 2 3 3 2 3 1 3 6 2 5 7 8 9 8 7 9 11 9 8 8 8 8 7 6 6 6 7 9 11 15 18 18 17 19 17 15 16 19 22 24 22 19 17 20 22 22 23 23 20 23 29 28 28 26 25 25 24 23 23 20 19 19 17 16 14
2 3 6 3 2 4 5 2 3 2 4 1 2 1 1 3 5 4 1 1 1 1 4 3 3 3 2 3 4 2 4 4 6 8 8 8 10 11 9 8 9 8 8 7 6 6 6 9 11 11 14 18 19 20 19 19 22 28 28 25 25 23 25 25 22 23 24 26 26 23 22 27 27 26 26 24 24 24 25 23 21 21 21 19 18 16
2 2 6 5 5 4 2 2 4 3 2 1 3 2 2 3 0 1 2 2 2 2 3 3 4 2 2 3 3 2 6 6 6 7 8 10 11 10 9 9 10 9 8 7 5 5 5 9 13 15 16 18 18 18 20 21 25 31 28 25 27 26 27 30 28 27 28 28 27 25 24 26 24 23 24 24 24 24 25 24 21 21 22 21 20 18
2 1 4 5 6 7 5 1 2 3 4 3 3 3 1 4 3 1 2 3 3 3 2 3 3 2 1 3 3 2 4 4 5 7 7 9 10 10 9 9 9 8 7 6 5 5 5 8 13 16 18 20 21 17 18 23 26 29 28 26 28 28 29 33 34 31 31 30 26 23 25 24 22 22 22 23 25 23 24 25 22 21 21 22 21 19
3 2 2 6 7 6 4 2 2 2 0 1 1 2 2 1 2 1 1 0 2 2 1 0 1 3 4 3 4 4 4 2 4 7 6 6 8 9 9 9 8 8 7 6 5 4 5 7 12 16 17 19 21 21 19 19 21 25 28 28 29 29 30 34 34 31 31 29 23 20 24 23 21 23 22 22 25 24 23 24 23 21 20 21 21 20
2 2 1 3 5 3 5 7 5 3 1 1 2 2 1 1 3 3 3 3 1 2 2 3 1 5 5 1 4 6 5 5 6 8 7 5 6 8 9 10 9 8 8 7 6 5 4 7 11 14 17 19 20 21 21 20 19 19 21 23 25 27 28 29 30 28 26 25 22 19 21 22 20 19 18 19 24 24 22 22 22 22 21 22 23 21
2 3 2 1 3 4 8 10 10 9 7 2 2 2 3 3 4 4 1 2 1 1 2 3 2 5 6 2 5 7 9 7 4 9 9 5 5 7 8 9 9 8 7 7 6 5 5 8 12 14 15 17 18 19 20 22 22 19 17 17 18 20 21 22 22 19 15 17 24 25 20 18 20 17 15 17 20 21 19 19 20 22 23 23 22 21
2 3 2 2 4 5 8 10 10 9 7 4 2 2 2 2 4 5 4 2 1 3 2 3 0 4 5 4 4 6 11 12 7 7 11 9 5 7 8 8 8 8 8 7 6 5 7 10 12 12 12 14 16 17 18 19 21 20 19 17 15 14 13 16 17 15 10 9 17 24 21 17 16 15 13 14 16 17 16 16 17 19 22 22 20 17
1 1 2 1 3 5 6 6 7 8 6 3 3 5 4 3 5 4 2 3 2 2 2 4 1 3 4 4 7 7 10 13 10 8 7 6 5 6 6 7 7 8 8 8 6 6 7 8 8 9 11 12 14 15 16 16 17 18 17 16 15 14 13 13 14 15 13 10 11 17 21 20 18 16 14 13 12 12 13 14 14 16 19 21 19 16
1 1 3 4 2 1 1 0 2 5 5 2 4 7 6 6 7 4 2 4 1 3 4 3 3 3 4 6 9 8 8 9 8 7 6 6 5 3 2 5 8 8 7 8 7 6 7 6 7 10 11 12 13 14 15 15 14 14 14 14 14 14 14 15 16 15 15 14 11 10 14 17 18 17 17 16 15 13 11 10 10 12 15 18 20 17
2 1 2 3 5 5 4 3 3 4 4 4 7 8 6 5 6 5 4 1 2 0 3 1 4 2 1 6 7 7 8 6 5 7 5 4 5 6 6 4 3 6 6 6 7 6 6 6 7 10 13 13 13 14 15 15 15 14 13 12 12 13 14 15 17 16 15 15 15 10 6 6 7 8 10 12 14 14 14 12 9 9 13 16 19 19
3 1 1 1 2 3 5 7 8 7 6 5 7 8 7 7 6 5 2 4 3 3 3 3 3 1 2 4 1 3 3 5 6 6 4 5 7 8 3 3 2 4 7 6 7 7 7 7 6 8 13 14 14 14 15 15 15 15 14 12 11 12 13 13 14 14 13 13 13 11 7 4 4 4 5 6 8 9 11 13 11 11 13 16 18 20
4 1 3 2 4 5 5 7 7 7 7 7 6 6 7 7 7 5 4 5 2 2 5 5 2 3 3 3 3 2 3 6 8 8 5 4 3 7 10 9 5 4 4 5 8 7 6 7 6 8 12 14 15 15 15 15 15 14 13 12 11 11 11 11 11 11 11 11 12 12 11 10 10 10 8 8 8 8 9 10 11 12 14 15 17 18
4 1 2 1 2 4 5 7 8 7 7 7 6 7 7 6 5 4 3 4 3 1 3 2 4 4 4 5 5 6 6 7 8 9 9 8 6 3 2 5 5 5 2 2 6 8 7 6 7 9 12 14 15 16 16 16 16 14 12 11 11 11 11 10 10 10 11 11 11 12 11 12 12 11 10 10 10 10 10 10 10 10 11 12 13 14
3 1 1 3 3 5 5 6 8 8 7 6 7 7 6 5 6 5 3 5 5 3 4 6 8 6 5 5 4 7 7 8 9 10 9 9 9 9 7 6 4 1 5 5 4 7 8 7 7 9 12 14 15 15 16 16 16 15 13 11 10 10 9 9 10 11 10 10 10 10 10 11 10 10 10 10 9 9 10 10 9 8 8 9 10 11
3 1 1 5 3 3 4 5 7 7 7 7 6 7 6 5 5 4 4 5 4 3 6 9 7 2 5 5 6 7 8 9 9 8 8 8 9 11 10 10 10 8 2 5 6 6 7 7 7 9 12 13 13 12 12 15 16 15 13 11 9 9 8 8 9 8 8 9 10 10 10 11 10 9 10 10 8 8 9 9 8 8 8 8 9 9
3 2 1 3 2 2 3 5 6 7 7 5 4 7 7 4 4 5 6 8 8 5 5 5 3 2 5 9 9 9 8 8 7 6 6 6 8 10 10 9 10 11 7 3 7 6 5 6 7 10 13 13 12 10 9 13 16 15 11 9 8 7 7 7 8 7 7 8 9 9 10 11 10 9 9 8 8 8 7 6 7 7 8 9 9 9
2 2 1 2 2 2 1 4 6 5 3 3 2 6 8 7 7 6 7 10 11 7 4 4 5 6 8 10 9 9 8 7 8 9 8 7 7 8 9 9 8 11 12 8 5 5 6 8 11 15 17 14 12 12 9 10 13 12 10 10 10 9 8 9 10 8 8 9 9 7 8 9 9 10 10 8 7 6 6 5 4 4 6 7 8 9
3 1 2 2 3 2 2 6 4 2 3 2 5 9 8 8 8 8 11 13 12 9 8 9 9 8 8 8 8 7 7 7 10 13 13 11 8 7 8 8 8 10 11 9 8 7 8 11 13 15 16 13 10 11 9 5 9 7 6 8 11 11 9 10 12 13 11 11 11 10 9 9 9 9 8 7 6 6 5 4 4 3 3 5 6 7
5 4 2 2 2 2 2 3 2 4 2 4 8 8 7 7 7 7 9 12 12 10 8 8 8 9 9 10 8 7 8 6 8 11 13 12 10 9 9 8 7 7 7 8 10 11 13 17 17 13 11 9 8 11 11 7 4 2 1 3 7 8 6 7 9 13 13 12 12 11 12 12 11 9 7 6 7 6 5 4 4 3 3 4 6 8
6 4 3 2 1 3 4 2 2 2 6 6 5 6 5 4 4 3 5 6 9 10 8 7 8 9 9 9 9 9 9 6 6 8 11 11 11 11 10 9 7 6 6 8 10 9 11 15 17 13 8 7 8 10 10 8 7 7 5 4 1 1 5 8 6 7 9 10 9 9 12 14 11 9 8 7 6 5 4 4 4 4 4 4 5 7
6 5 5 3 1 3 4 1 1 1 2 2 3 6 6 4 3 1 4 3 7 9 9 8 8 8 8 8 9 9 8 7 5 5 8 10 11 9 10 11 11 12 10 8 9 7 4 4 5 7 3 4 8 9 8 8 8 8 6 7 8 7 7 6 5 5 6 7 7 7 11 12 9 7 8 7 6 4 3 4 4 4 5 5 6 7
4 4 5 5 2 3 4 3 1 1 2 2 4 7 7 7 6 4 4 2 5 7 8 8 7 8 7 7 7 7 6 6 4 5 6 9 9 9 9 10 12 15 16 12 10 11 11 8 5 4 1 2 4 6 7 7 6 6 6 7 8 11 12 10 7 7 6 2 2 2 4 6 6 8 7 5 5 5 5 5 5 5 6 6 7 8
6 5 4 4 3 2 3 2 1 1 1 1 5 7 7 6 6 6 2 2 5 7 6 7 7 7 6 6 6 5 4 3 3 5 6 8 9 10 11 12 12 14 16 15 13 13 14 13 11 10 8 5 5 5 8 10 9 7 7 6 7 10 13 13 12 11 9 6 4 3 2 1 2 5 6 7 8 8 8 8 7 7 7 8 8 9
4 3 3 4 2 2 3 2 1 1 0 3 6 8 8 5 5 4 1 3 4 6 5 5 6 6 6 5 4 2 1 2 3 4 7 9 9 10 12 14 17 19 19 18 18 17 14 12 12 13 15 13 10 9 10 10 8 7 7 7 8 10 11 13 14 14 12 10 8 7 6 5 5 7 8 11 12 12 11 11 10 9 8 9 11 11
2 2 2 2 2 1 2 2 1 1 1 3 5 7 6 3 1 1 3 3 4 5 5 5 5 5 6 6 5 3 4 5 5 6 7 8 8 10 11 14 16 18 21 22 22 20 17 14 13 13 14 15 13 12 12 11 10 9 8 8 10 11 12 13 13 14 14 13 12 11 10 10 11 11 11 11 12 13 12 11 11 11 11 12 13 12
1 1 1 1 1 2 2 2 2 1 3 4 3 4 5 2 1 2 1 2 4 5 7 7 6 6 6 6 6 6 6 6 6 6 6 6 7 9 12 15 15 15 19 22 24 22 20 18 16 15 16 17 16 16 16 16 16 15 14 14 14 15 15 15 14 15 16 16 15 13 12 11 12 12 12 11 10 11 12 12 12 12 13 14 14 11
2 1 1 1 1 2 3 2 1 2 2 0 2 2 2 3 4 5 4 4 6 6 6 5 6 7 7 6 7 7 7 7 7 7 6 6 7 7 10 15 17 17 18 19 21 23 22 21 20 21 22 22 21 21 20 19 18 18 19 19 19 18 18 17 16 16 16 15 14 13 14 15 15 16 16 15 14 14 14 14 14 15 15 15 14 12
3 2 2 1 1 2 2 1 2 2 2 5 4 3 5 8 8 7 6 5 4 4 4 4 5 6 6 6 7 7 7 7 7 7 7 7 7 7 9 13 17 19 20 20 21 22 22 23 23 23 24 24 24 24 24 23 20 19 19 20 19 19 19 18 16 14 13 13 13 14 15 17 18 18 18 17 18 18 17 18 18 17 14 12 12 14
3 4 3 1 2 2 1 3 6 6 6 6 5 6 8 8 6 6 6 4 4 4 4 4 5 6 6 6 6 6 6 7 8 8 8 8 8 9 11 14 17 19 20 20 21 22 21 21 22 22 23 24 24 25 25 25 23 21 20 21 21 20 20 20 19 18 17 18 18 19 19 20 20 20 19 18 17 16 17 19 19 16 14 13 13 15
4 5 4 2 3 2 1 6 9 7 5 6 8 8 8 7 6 6 5 4 4 5 5 5 5 6 6 6 6 7 7 8 8 9 9 8 9 10 13 15 18 19 20 20 20 20 21 21 20 19 19 19 19 18 18 19 18 16 15 15 15 15 15 15 15 16 18 19 22 25 24 23 24 25 25 24 20 14 11 11 13 14 14 14 13 14
3 5 3 3 3 1 1 6 9 6 5 7 8 6 6 7 7 6 5 5 6 5 6 7 7 6 6 6 7 8 9 9 9 9 9 8 8 9 12 15 18 19 20 21 21 21 21 20 17 16 16 17 18 18 18 18 18 17 17 16 15 14 15 15 16 16 16 16 19 22 22 21 19 19 21 22 17 10 8 9 11 12 12 12 11 12
3 3 2 3 4 2 3 7 9 7 7 8 8 6 6 6 7 8 7 7 7 7 7 9 9 7 7 8 8 8 9 9 8 8 9 8 8 9 11 15 18 19 20 21 22 22 20 19 19 18 18 18 19 19 19 19 20 20 20 20 19 18 18 18 19 20 19 17 16 17 18 17 14 10 11 12 11 11 12 12 12 12 12 12 12 12
4 3 3 3 4 3 3 5 5 3 3 6 7 7 7 7 7 7 7 6 7 7 7 8 8 9 9 9 9 8 8 8 8 9 8 8 8 11 14 16 17 18 18 19 19 19 19 20 20 19 18 17 17 18 18 19 20 20 21 21 20 20 20 20 21 22 22 19 16 16 16 16 14 11 9 11 14 14 13 12 12 13 13 12 11 11
4 3 2 4 2 2 3 3 3 1 3 5 6 6 7 6 6 6 7 6 6 6 6 6 7 8 8 8 10 10 7 8 11 11 9 8 12 14 15 14 15 15 16 18 19 18 19 21 22 21 21 20 20 20 20 20 20 20 21 21 20 19 20 21 22 22 21 19 17 17 16 16 15 11 9 13 17 16 14 13 12 12 12 12 10 8
Wind_Direction
174 180 235 230 231 233 235 227 222 264 326 336 334 315 315 310 290 274 156 164 149 132 178 181 211 241 217 208 211 189 138 133 141 142 147 155 152 161 166 162 166 165 168 174 178 185 183 179 183 175 160 160 159 159 164 161 161 160 157 159 157 155 150 146 151 150 150 154 151 148 143 136 135 135 132 128 130 130 129 130 131 134 138 145 148 138
168 192 231 228 231 228 213 191 171 34 15 0 352 328 323 320 315 9 84 144 108 95 192 330 332 272 271 274 258 189 143 142 147 150 157 163 165 173 173 167 164 159 161 166 172 180 178 177 184 177 161 160 160 161 165 165 164 163 164 166 161 157 154 150 154 158 160 162 162 156 147 141 136 135 133 127 130 132 130 130 130 135 138 144 143 133
196 222 238 232 235 218 165 85 61 44 23 11 358 341 314 304 331 3 43 70 62 83 358 8 13 300 304 325 310 219 159 154 153 158 163 165 167 175 176 166 158 159 167 171 169 174 178 181 184 176 165 166 166 164 166 168 167 166 168 170 165 158 156 158 164 172 175 170 165 159 150 144 135 131 129 122 124 128 132 132 129 130 132 139 136 123
202 238 240 223 209 178 118 30 41 35 8 333 300 328 291 289 349 345 333 59 52 72 87 40 10 314 320 340 327 292 176 129 141 156 160 165 168 175 177 164 160 166 173 175 171 175 182 182 182 177 169 168 168 166 167 168 168 169 173 175 170 160 158 167 168 164 168 162 152 147 144 140 131 125 124 122 123 123 127 129 124 118 116 123 128 119
224 233 220 182 168 155 121 67 63 55 337 291 243 214 264 285 332 340 302 23 24 16 62 55 14 318 320 330 311 296 139 99 137 149 146 160 162 166 171 163 163 169 172 173 171 179 184 180 181 179 172 170 170 168 168 170 171 173 178 179 173 164 165 174 168 156 149 144 139 136 134 131 129 130 130 127 124 120 118 121 120 113 110 115 121 123
233 224 141 124 148 138 110 129 149 145 262 308 255 215 229 268 290 288 320 44 43 351 327 89 51 295 301 303 282 285 318 32 161 145 135 148 136 148 163 165 169 173 171 170 171 177 183 179 176 176 175 172 173 173 170 171 173 176 180 181 177 170 173 178 172 164 153 144 140 138 136 136 136 137 136 131 127 124 120 119 120 114 110 113 116 121
215 210 146 117 81 34 43 339 213 147 152 296 261 245 244 263 277 265 264 79 105 269 251 136 134 265 302 304 282 280 299 289 181 136 126 134 112 134 160 169 169 165 155 158 168 174 175 174 170 172 178 177 176 176 172 170 172 176 177 178 177 174 179 180 176 176 166 154 150 148 144 143 144 141 136 133 129 127 123 119 118 113 108 112 116 119
182 159 119 101 91 50 4 286 261 180 169 248 238 282 307 287 283 271 263 186 175 202 307 147 143 179 287 279 277 282 299 289 219 156 124 135 133 134 150 165 167 162 158 159 170 178 175 174 172 172 178 181 180 177 174 173 173 173 172 175 175 172 180 186 183 184 178 167 161 154 148 147 148 142 136 135 130 127 124 120 119 117 115 114 117 121
203 143 153 136 124 167 204 230 240 204 194 235 222 200 274 296 314 312 300 269 204 114 306 264 158 155 266 273 289 296 302 289 214 174 128 117 134 140 146 162 169 164 163 164 171 177 171 170 174 175 178 183 182 178 179 182 180 175 171 173 173 168 177 192 191 188 184 175 165 156 153 150 145 141 139 135 129 128 127 123 123 123 121 116 113 116
210 181 172 151 136 181 215 233 243 233 219 224 217 191 16 351 334 325 316 301 35 98 233 264 153 116 276 284 299 308 307 284 212 179 146 111 91 87 113 145 158 148 155 168 167 168 172 175 178 179 179 182 184 182 182 186 187 184 179 178 176 169 175 195 197 191 185 173 166 162 158 150 143 141 139 135 134 136 134 129 129 126 121 118 114 112
222 190 137 141 163 186 230 241 243 249 239 200 160 98 39 345 299 302 312 49 64 22 248 247 241 183 261 281 254 255 275 231 206 177 153 124 100 89 90 112 128 121 141 154 133 139 171 178 179 180 180 184 187 183 180 186 189 186 182 181 182 175 177 193 198 192 184 173 172 171 161 152 148 146 143 141 143 144 140 135 133 131 126 123 120 118
274 228 133 188 177 174 285 287 279 276 268 202 109 72 43 340 320 335 339 34 74 277 254 244 291 238 225 266 242 239 298 215 176 153 133 117 102 98 93 96 101 95 97 101 93 93 107 119 152 175 186 189 190 187 181 181 179 175 173 178 186 183 180 191 197 192 185 180 182 176 163 157 155 152 149 149 149 147 145 139 138 137 133 130 128 127
288 247 232 223 177 172 185 276 308 312 310 326 79 75 61 347 349 4 329 8 151 253 259 52 31 334 230 242 246 250 320 61 108 117 122 116 103 97 97 94 89 88 90 90 90 80 75 81 117 169 193 194 193 196 185 165 161 169 175 180 187 188 183 188 192 191 188 189 190 178 167 163 161 158 156 154 153 154 152 146 144 145 142 140 139 136
302 298 288 289 184 180 164 145 245 285 298 280 134 106 119 157 46 281 270 271 235 270 293 87 94 292 270 270 286 288 296 59 82 96 111 114 109 104 101 93 83 82 82 80 78 68 63 50 25 29 191 196 200 199 181 165 173 179 181 183 184 184 183 184 186 189 191 196 199 182 172 168 165 164 160 159 159 158 157 154 152 153 149 147 148 142
289 313 277 254 176 173 177 172 185 208 249 243 201 149 154 157 156 195 199 179 222 276 310 17 126 219 262 254 270 281 50 80 77 87 92 89 95 96 88 82 79 79 75 70 65 53 41 13 5 34 50 108 197 193 177 177 178 164 161 171 169 164 170 177 181 183 184 197 214 196 178 174 171 168 164 162 163 160 162 162 158 158 153 148 150 146
223 255 239 218 173 164 175 197 187 185 302 268 237 139 168 177 148 154 187 191 179 25 313 298 193 215 202 241 260 257 98 98 98 95 91 79 74 79 82 81 80 78 72 65 55 38 13 4 37 68 67 76 127 156 157 165 151 120 134 159 159 160 171 173 177 176 171 193 226 220 186 178 175 171 166 165 166 163 166 168 164 164 161 153 152 149
193 256 280 234 176 167 156 190 174 122 146 284 309 165 194 167 132 122 262 263 78 47 275 238 257 290 321 284 273 197 117 116 117 111 110 103 85 84 90 87 83 80 74 70 59 38 14 22 57 81 84 92 106 122 136 145 144 152 172 175 169 174 179 174 176 176 172 189 223 229 193 181 179 173 169 169 171 170 169 170 170 168 166 161 160 157
133 265 305 347 236 194 146 188 286 96 111 26 319 258 236 118 115 105 95 330 55 233 258 211 215 258 228 275 296 160 164 162 137 130 122 108 96 95 100 96 93 90 81 76 59 39 32 31 44 65 77 93 114 131 142 150 163 179 187 178 168 171 172 170 176 181 178 188 213 223 198 182 179 176 173 173 174 175 173 171 171 172 171 170 168 164
43 302 303 341 332 324 84 169 280 338 47 228 247 300 44 108 137 53 129 183 194 212 276 249 231 245 185 225 269 237 223 204 158 142 128 118 114 109 107 104 98 93 85 77 55 39 42 37 43 58 65 73 93 121 143 152 165 179 185 175 168 168 166 168 180 187 184 190 209 216 201 187 182 179 179 179 178 179 178 172 169 171 173 173 173 169
45 66 286 320 347 355 11 108 199 301 326 296 271 311 26 142 160 192 174 168 171 195 260 279 278 315 282 238 256 293 266 221 155 140 130 126 126 120 116 111 101 98 97 95 79 53 48 49 53 61 65 64 67 84 125 148 161 173 178 173 169 168 167 173 184 189 187 193 206 208 198 192 189 187 188 186 182 182 181 174 168 169 172 174 176 174
35 79 249 304 349 9 344 280 186 190 352 27 344 308 309 356 86 58 321 46 125 159 195 355 319 286 268 278 326 351 355 23 106 121 116 113 120 122 119 113 108 110 108 104 102 78 57 60 63 65 69 70 70 72 92 123 145 162 172 174 170 168 170 177 186 191 191 193 198 199 195 193 192 193 195 193 188 184 180 176 172 170 170 173 177 178
50 92 183 306 341 339 280 295 329 354 11 140 187 181 166 117 87 64 349 330 52 121 161 136 188 264 258 319 356 347 12 49 89 97 73 60 102 114 114 115 115 118 120 119 116 108 89 75 71 71 73 73 74 76 82 92 107 134 157 168 170 169 172 178 185 190 191 190 191 191 191 189 186 185 183 183 185 179 169 167 169 167 164 167 175 179
87 104 82 294 280 280 293 309 324 327 324 316 213 165 111 115 114 112 171 267 285 221 183 121 137 262 270 347 9 359 14 29 90 112 102 96 108 110 111 116 117 116 120 125 124 126 120 98 86 82 82 80 77 79 83 86 92 105 123 141 156 164 173 180 180 177 176 184 190 189 183 179 178 173 162 161 170 170 160 156 160 165 165 164 169 177
358 78 77 299 294 308 314 315 316 320 335 351 322 344 65 128 130 135 170 193 219 224 166 117 186 271 282 329 15 27 29 26 31 94 117 127 119 110 113 115 119 120 119 124 126 124 115 105 100 96 91 90 89 86 87 89 93 99 106 117 127 134 153 168 169 168 161 153 171 175 168 157 159 158 148 145 154 162 164 161 159 164 169 167 162 162
299 72 100 52 346 339 336 332 331 340 2 18 316 334 359 36 65 76 68 53 22 292 101 120 199 264 277 336 17 30 36 44 46 47 69 88 86 101 123 124 120 121 124 131 135 131 125 121 117 113 105 100 100 97 94 95 96 99 103 108 113 115 122 136 149 163 166 149 147 159 156 150 150 153 151 150 154 161 168 174 173 171 173 175 170 158
150 108 110 120 151 239 275 343 353 344 349 347 326 333 348 25 53 74 58 54 31 309 19 98 179 254 301 7 23 22 32 55 79 70 45 46 51 44 108 140 134 133 139 142 142 142 142 140 130 125 120 114 112 110 106 105 105 106 109 108 110 116 120 128 137 140 144 153 156 148 143 146 149 154 161 164 168 171 168 169 179 182 185 189 185 181
81 52 91 135 175 197 228 265 330 344 332 324 326 326 330 6 45 71 64 72 181 355 350 191 153 163 33 50 30 7 25 39 78 103 105 93 73 38 359 347 99 119 128 126 120 118 116 120 129 133 133 130 126 120 113 110 109 110 114 116 117 120 120 128 137 136 132 140 147 141 126 127 133 143 162 167 168 172 170 166 177 198 207 208 203 204
68 6 327 282 246 256 278 298 319 323 310 303 306 310 320 341 9 28 351 242 187 69 308 272 81 83 202 120 89 310 30 39 32 61 112 136 123 114 101 299 298 114 122 116 103 98 93 91 93 114 132 141 140 132 123 118 116 114 115 118 121 123 122 124 130 134 134 134 138 147 161 185 182 161 155 157 160 170 180 188 199 207 209 213 215 219
104 210 256 276 282 286 290 300 307 300 295 300 297 298 312 330 349 354 304 263 229 171 234 245 29 351 309 50 46 351 49 59 42 42 62 88 123 148 160 187 195 108 95 106 108 104 96 92 81 84 104 119 123 123 124 122 120 118 118 119 123 125 125 128 127 127 132 132 131 136 146 157 157 148 138 134 137 146 162 178 189 195 200 206 214 222
102 198 253 334 324 321 332 329 322 311 301 304 307 307 309 321 347 4 345 335 341 262 246 225 88 57 4 10 33 36 41 56 56 46 44 45 32 19 202 208 180 126 119 160 139 131 122 112 104 96 97 104 110 113 117 122 122 124 123 117 119 123 126 130 131 130 132 132 131 131 137 143 142 141 144 142 141 146 152 158 167 181 195 204 212 222
80 195 265 58 26 346 342 328 317 311 307 308 310 317 336 2 4 3 15 26 30 7 360 42 73 57 345 326 26 44 42 46 51 48 41 37 38 35 16 347 343 213 190 187 160 138 134 128 114 103 98 103 112 115 120 126 127 129 133 129 124 126 127 127 130 134 136 138 142 143 144 148 147 147 152 151 151 159 161 162 169 178 188 201 214 221
87 165 36 63 51 321 315 321 322 331 342 347 341 340 3 40 33 18 33 37 34 39 36 43 58 30 335 356 25 34 42 47 46 51 55 47 46 47 38 26 10 349 303 166 152 136 136 138 128 118 111 111 118 123 132 139 136 134 136 139 141 144 143 140 137 143 151 152 156 160 159 159 158 157 157 156 159 166 167 171 182 192 201 210 217 219
109 99 92 96 114 257 297 332 343 6 9 350 344 356 3 33 61 51 44 29 24 41 62 45 30 16 28 32 26 19 32 46 39 45 62 60 55 52 44 41 33 13 6 139 158 145 130 127 121 113 107 108 109 105 121 142 146 150 155 160 169 175 176 177 173 179 190 183 173 166 159 160 163 161 159 157 158 165 170 182 193 203 219 227 227 225
90 86 169 144 130 214 320 13 11 15 350 272 323 22 24 32 46 57 54 40 35 46 70 57 40 40 45 44 34 16 9 26 41 44 47 43 48 61 55 47 46 37 31 43 69 66 71 86 90 89 89 92 91 80 87 122 138 151 168 178 189 194 189 185 183 179 176 175 178 174 164 164 163 156 157 161 164 168 176 194 206 206 219 228 227 226
152 171 225 141 124 167 35 39 26 296 233 179 38 28 31 34 42 66 63 44 34 33 39 46 42 37 43 46 38 18 358 17 50 47 35 29 29 45 58 54 51 51 48 46 41 30 36 51 62 73 78 81 76 59 52 104 140 155 183 194 196 197 201 199 190 185 180 174 179 184 179 174 166 159 164 170 169 172 180 194 211 218 226 232 231 234
166 178 181 137 129 131 82 87 173 243 290 59 43 20 23 28 24 48 54 32 19 18 26 40 40 33 34 33 22 5 349 8 57 50 29 21 18 24 44 55 55 59 62 60 50 30 19 21 24 35 53 53 43 39 40 59 102 96 301 213 188 183 215 238 209 197 197 189 186 193 190 182 176 173 177 177 176 182 182 185 201 211 222 242 239 238
191 188 152 145 164 126 133 182 208 320 347 13 25 1 9 32 18 46 80 40 12 10 16 29 37 32 30 27 14 356 350 14 49 38 21 14 9 16 37 44 43 48 63 78 74 46 17 15 11 6 17 26 16 22 31 29 17 10 2 343 336 209 247 256 240 221 208 190 194 210 195 180 173 173 178 182 186 191 189 189 208 222 229 249 252 243
192 179 144 144 191 109 117 124 340 349 316 325 354 351 354 359 349 33 113 69 0 359 9 18 28 29 26 24 13 358 4 34 35 5 5 7 2 12 29 26 20 16 18 56 84 66 34 27 337 306 308 16 5 359 358 359 8 15 5 346 341 332 310 288 272 274 246 205 202 208 188 177 180 188 190 190 191 201 213 215 226 239 242 253 262 257
95 101 110 121 113 71 103 131 207 198 203 269 320 342 343 334 346 28 87 51 341 344 1 11 14 20 22 19 13 12 28 38 1 329 352 360 356 7 13 5 5 2 356 6 34 27 11 360 321 288 246 258 302 324 326 321 333 348 340 332 324 320 322 324 323 319 310 272 189 170 170 178 192 192 187 191 213 235 243 238 236 243 250 257 263 261
43 41 62 94 115 130 143 166 201 156 140 325 326 333 331 335 17 50 68 317 327 327 345 12 8 360 7 16 19 28 45 34 316 309 338 350 354 2 359 349 348 348 346 348 355 357 355 351 345 352 354 314 284 313 318 299 284 270 267 285 299 301 305 310 311 310 310 311 312 299 283 251 219 214 222 240 250 246 235 234 239 246 251 255 263 268
24 17 51 75 97 156 164 160 126 136 340 332 316 309 315 344 36 48 259 259 301 309 328 9 358 333 342 8 25 26 356 334 324 333 346 348 346 346 345 341 338 335 335 336 335 337 341 339 333 332 329 319 311 313 313 304 289 268 257 257 262 268 277 286 290 289 290 295 295 285 275 274 280 277 265 255 245 231 227 234 238 244 254 259 267 275
22 9 27 52 41 56 128 135 94 46 276 265 280 305 339 28 66 225 224 234 268 297 329 346 333 331 353 8 15 3 334 339 350 352 348 343 336 331 330 332 332 329 327 326 326 328 330 328 326 322 316 314 312 310 314 316 308 300 295 281 267 264 264 264 267 274 281 287 288 282 277 274 272 272 273 264 240 221 220 226 229 242 260 267 271 271
100 101 1 19 20 34 63 73 60 1 254 235 261 336 20 71 209 258 271 301 328 356 5 356 347 0 11 4 358 351 342 341 338 328 323 322 319 315 316 318 317 315 314 313 311 312 315 316 315 313 309 308 307 306 309 308 299 294 292 287 284 284 277 268 267 271 274 279 282 278 272 270 269 270 276 277 258 236 231 233 239 251 259 262 268 254
40 76 95 26 24 50 46 47 112 204 240 77 74 35 35 47 33 29 29 18 12 13 11 2 354 356 0 356 348 340 333 329 319 310 307 301 291 287 293 299 299 298 299 298 296 300 304 304 302 300 299 297 297 297 297 294 290 287 282 279 281 283 278 270 267 262 258 261 269 274 275 279 283 283 281 279 274 264 252 245 246 247 245 249 251 222
4 21 98 101 58 88 111 164 169 159 50 50 69 76 53 42 38 42 44 32 14 0 357 352 337 333 341 343 338 330 324 319 313 311 311 304 295 291 288 288 290 291 290 289 290 292 293 289 287 288 288 288 290 290 288 285 280 273 270 271 275 278 278 275 269 260 253 256 262 267 270 272 274 275 272 268 267 265 256 250 247 238 226 225 222 198
18 28 62 62 29 45 72 61 52 36 20 27 38 46 49 44 35 36 35 16 346 332 330 323 312 316 328 333 327 320 316 315 314 313 312 309 306 307 306 303 301 300 298 295 295 297 298 293 286 281 279 280 281 281 281 282 277 270 268 271 271 272 275 274 267 258 252 255 258 259 260 261 262 263 262 261 264 266 261 253 242 222 200 192 193 185
17 29 47 56 39 32 28 39 33 12 355 24 34 28 25 25 22 21 11 337 319 315 315 317 318 322 331 335 328 317 310 310 311 306 302 303 304 304 305 303 301 300 299 298 299 304 308 305 299 293 289 286 285 288 292 294 293 291 293 293 287 283 284 284 278 267 259 259 259 256 253 256 259 259 258 256 255 257 256 240 216 197 186 182 180 177
14 30 33 36 39 110 105 38 22 1 5 28 28 14 8 6 359 352 347 337 335 335 336 341 344 344 342 335 322 311 304 300 298 294 290 288 289 291 293 294 294 294 295 297 300 304 304 301 299 303 306 305 304 305 303 300 300 302 303 302 302 301 301 303 303 296 287 281 272 259 250 250 255 259 257 251 240 217 191 184 180 180 185 187 188 189
22 31 11 23 22 357 17 22 14 9 11 8 0 356 358 352 344 346 352 353 351 353 349 344 344 344 337 326 318 313 312 308 302 300 299 296 291 290 292 293 293 294 295 297 299 300 301 300 296 294 296 297 300 301 298 295 293 292 292 292 294 296 297 296 297 296 294 288 276 263 254 250 250 254 248 232 205 169 160 168 174 182 190 197 204 207
40 32 7 42 42 358 355 18 24 21 331 321 333 346 346 344 346 347 348 350 353 352 343 336 336 333 326 323 323 318 311 310 312 311 309 305 300 297 297 298 298 299 301 303 302 301 303 304 301 297 295 295 297 297 296 294 292 289 288 288 287 287 288 287 286 285 284 280 270 263 257 248 244 245 234 205 184 168 159 158 168 182 189 192 198 209
76 76 62 81 101 269 308 358 30 75 258 286 319 336 336 346 356 349 345 348 343 336 333 326 320 318 316 321 329 328 320 322 328 325 314 310 312 310 309 314 317 317 317 315 310 304 300 295 293 292 291 291 292 289 285 284 286 286 286 284 281 277 277 276 274 271 270 271 270 267 261 248 238 233 213 190 180 172 163 154 153 165 177 185 194 212